sat.trackr.live / text

‹ back to catalog

STARLINK-4607

NORAD 53740 · 2022-107AS

PAYLOAD ACTIVE UNKNOWN

§ Identity

Operator
Country
US
Launch date
2022-09-05
Launch site
AFETR
Launch vehicle
Mass (kg)
RCS (m²)

Purposes: comms

External: N2YO · Heavens-Above · Gunter

§ Orbital elements

Epoch: 2026-05-24T20:34:19.691904Z

Period
95.44 min
Inclination
53.2112°
Eccentricity
0.0001925
Mean motion
15.08840589 rev/d
Perigee alt
538.4 km
Apogee alt
541.1 km
Semi-major
6,917.9 km
B*
4.1585e-5
RAAN
282.0828°
Arg perigee
91.9606°
Mean anomaly
268.1607°
Rev number
20,609

§ Raw data

STARLINK-46071 53740U 22107AS  26144.85717236  .00000374  00000+0  41585-4 0  99972 53740  53.2112 282.0828 0001925  91.9606 268.1607 15.08840589206098

JSON: /api/v1/satellites/53740 · /tle

For live sub-satellite position, see the globe view (requires WebGL).

§ Visibility from observer

Set your observer location to see the next 7 days of passes ≥ 10°. The values pass through the URL so the page stays shareable.

No JS? Fill the form by hand. The geolocation button needs JavaScript.